Pellston, MI

12:18 AM EDT on July 28, 2017 (GMT -0400)
Pellston Regional Airport Of Emmet County

Weather History for KPLN - October, 2011

Change the Weather History Date:

Tuesday, October 4, 2011

  Actual Average Record
Temperature  
Mean Temperature 51 °F -  
Max Temperature 69 °F 59 °F 87 °F (2005)
Min Temperature 33 °F 37 °F 21 °F (1965)
Degree Days  
Heating Degree Days 14    
Growing Degree Days 1 (Base 50)    
Moisture  
Dew Point 41 °F    
Average Humidity 74    
Maximum Humidity 100    
Minimum Humidity 33    
Precipitation  
Precipitation 0.00 in - - ()
Sea Level Pressure  
Sea Level Pressure 30.25 in    
Wind  
Wind Speed 2 mph (WSW)    
Max Wind Speed 9 mph    
Max Gust Speed -    
Visibility 10 miles    
Events      
Averages and records for this station are not official NWS values.
T = Trace of Precipitation, MM = Missing Value Source: NWS Daily Summary

Daily Weather History Graph

Daily Weather History Graph

Search for Another Location

Airport or City:

Trip Planner

Search our weather history database for the weather conditions in past years. The results will help you decide how hot, cold, wet, or windy it might be!

Date:

Astronomy

Oct. 04, 2011 Rise Set
Actual Time 7:40 AM EDT 7:14 PM EDT
Civil Twilight 7:11 AM EDT 7:43 PM EDT
Nautical Twilight 6:36 AM EDT 8:18 PM EDT
Astronomical Twilight 6:02 AM EDT 8:52 PM EDT
Moon 3:34 PM EDT (10/4) 12:03 AM EDT (10/4)
Length of Visible Light 12h 32m
Length of Day
11h 33m
First Quarter, 56% of the Moon is Illuminated
Oct 4
First Quarter
Oct 11
Full
Oct 19
Last Quarter
Oct 26
New
Nov 2
First Quarter

Hourly Weather History & Observations

Time (EDT) Temp. Dew Point Humidity Pressure Visibility Wind Dir Wind Speed Gust Speed Precip Events Conditions
12:54 AM 39.9 °F 39.9 °F 100% 30.26 in 10.0 mi Calm Calm - N/A   Clear
1:54 AM 39.9 °F 39.0 °F 97% 30.26 in 10.0 mi Calm Calm - N/A   Clear
2:54 AM 37.9 °F 37.0 °F 97% 30.26 in 10.0 mi Calm Calm - N/A   Clear
4:54 AM 37.0 °F 37.0 °F 100% 30.25 in 10.0 mi Calm Calm - N/A   Clear
5:54 AM 37.0 °F 36.0 °F 96% 30.26 in 10.0 mi Calm Calm - N/A   Clear
6:54 AM 37.0 °F 35.1 °F 93% 30.27 in 10.0 mi Calm Calm - N/A   Clear
7:54 AM 33.8 °F 33.8 °F 100% 30.27 in 10.0 mi Calm Calm - N/A   Clear
8:54 AM 43.0 °F 41.0 °F 93% 30.30 in 10.0 mi Calm Calm - N/A   Clear
9:54 AM 50.0 °F 46.4 °F 87% 30.28 in 10.0 mi Calm Calm - N/A   Clear
11:54 AM 64.0 °F 50.0 °F 60% 30.28 in 10.0 mi Variable 3.5 mph - N/A   Clear
12:54 PM 66.9 °F 48.0 °F 51% 30.27 in 10.0 mi SW 5.8 mph - N/A   Clear
1:54 PM 69.8 °F 44.6 °F 40% 30.24 in 10.0 mi WSW 8.1 mph - N/A   Clear
2:54 PM 69.8 °F 39.2 °F 33% 30.22 in 10.0 mi Variable 6.9 mph - N/A   Clear
3:54 PM 69.1 °F 41.0 °F 36% 30.22 in 10.0 mi West 8.1 mph - N/A   Clear
4:54 PM 68.0 °F 41.0 °F 37% 30.22 in 10.0 mi West 9.2 mph - N/A   Clear
5:54 PM 66.0 °F 41.0 °F 40% 30.21 in 10.0 mi WSW 6.9 mph - N/A   Clear
7:54 PM 54.0 °F 42.1 °F 64% 30.22 in 10.0 mi Calm Calm - N/A   Clear
8:54 PM 50.0 °F 43.0 °F 77% 30.21 in 10.0 mi Calm Calm - N/A   Clear
9:54 PM 48.0 °F 42.1 °F 80% 30.22 in 10.0 mi Calm Calm - N/A   Clear
10:54 PM 45.0 °F 42.1 °F 90% 30.22 in 10.0 mi Calm Calm - N/A   Clear
11:54 PM 43.0 °F 41.0 °F 93% 30.22 in 10.0 mi Calm Calm - N/A   Clear